QIANFAN-48 (62249 NORAD) Tracking and Keplerian Element Data

This shows tracking and keplerian element data for the satellite.

Feedback or suggestion? Click here.




ElementValue
Catalog62249
NameQIANFAN-48
Epoch Orbit5696
Epoch Day34.75851787
Epoch Year2025
RAAN73.1621
Inclination88.9888
Eccentricity0.0018019
Argument of Perigee30.6453
Mean Anonmoly329.5786
Mean Motion14.19870068
Decay Rate2.68E-06
L11 62249U 24232N 25034.75851787 .00000268 00000+0 11961-3 0 9994
L22 62249 88.9888 73.1621 0018019 30.6453 329.5786 14.19870068 56964



Live tracking and technical data element details for QIANFAN-48 (NORAD 62249). QIANFAN-48 can be tracked NOW for your location showing map with azimuth and elevation plus other details from your city location.







IsCatalogInMostPopularTable: catalog: 62249, numindb: 16
Update: records affected: 1



GetName: 62249 QIANFAN-48

Hit Count: updated at: Sun, 18 May 2025 22:15:44 GMT